THOR ABLESTAR DEB, 405

Orbit data source: Space-Track

THOR ABLESTAR DEB, 405 is space debris in LEO originally from a launch on Thu, 29 Jun 1961 UTC launched from the Air Force Eastern Test Range (AFETR). Debris objects in space refer to the collection of defunct objects orbiting the Earth. Examples of debris include non-operational satellites, rocket bodies, and fragments generated from explosions, collisions, or faulty payload assembly.

Loading next visibility...
Identifier
405, 1961-015EE
Orbit
LEO
Country
Flag of USUS
Related business
Manufacturer
Unknown
Mission
Spacecraft
Bus & Motor
Unknown
Mass
Unknown
Launch date (UTC)
1961-06-29 (64 years ago)
Launch vehicle
Unknown
Launch site
Air Force Eastern Test Range (AFETR)
Object type
Payload
Rocket body
Debris
Shape & HBR
Unknown shape, 0.3 m
Radar Cross Section
Small (<0.1 m²)

Expand to show TLE details & history
Last TLE update: 21 hours ago

TLE from 21 hours ago
0 THOR ABLESTAR DEB
1 00405U 61015EE  25353.12004927  .00000150  00000-0  25933-3 0  9996
2 00405  66.8919 223.2236 0090058 301.7079 135.5280 13.66638264207546
Epoch: 2025-12-19T02:52Z
TLE epoch observation values (Epoch: 2025-12-19T02:52:52.256Z)
Latitude
64.20321°
Longitude
153.47479°
Altitude
1,069.687 km
Speed
7.3 km/s
True Right ascension
18h 58m 37s
True Declination
64° 04' 26"
Sunlit
Object was in daylight at epoch
Visualization orbit readout
Latitude
Unknown
Longitude
Unknown
Altitude
Unknown
Speed
Unknown
Apparent Right ascension
Unknown
Apparent Declination
Unknown
Sunlit
N/A
Visualization observer readout
Local Sidereal Time
22:59:39
Azimuth
Unknown
Elevation
Unknown
Doppler factor
Unknown
Orbital elements
Apogee altitude
1,076.603 km
Perigee altitude
943.53 km
Semi-major axis
7,388.203 km
Eccentricity
0.00901
Inclination
66.8919°
RAAN
223.2236°
Arg. of periapsis
301.7079°
True anomaly
136.24519°
Mean anomaly
135.528°
Eccentric anomaly
135.88717°
Mean motion
3.41771 °/min
Orbital period
105.33 mins
BSTAR
0.00025933

Documentation

Showing up to 5 results
|